Time,TemperatureF,DewpointF,PressureIn,WindDirection,WindDirectionDegrees,WindSpeedMPH,WindSpeedGustMPH,Humidity,HourlyPrecipIn,Conditions,Clouds,dailyrainin,SoftwareType,DateUTC
2013-12-15 00:02:00,13.3,4.0,30.34,NNE,22,0.0,0.0,66,0.00,,,0.00,WUHU21623XXSP,2013-12-15 08:02:00,
2013-12-15 00:07:00,13.3,4.0,30.34,NNE,22,0.0,0.0,66,0.00,,,0.00,WUHU21623XXSP,2013-12-15 08:07:00,
2013-12-15 00:12:00,13.3,4.3,30.34,NNE,22,0.0,0.0,67,0.00,,,0.00,WUHU21623XXSP,2013-12-15 08:12:00,
2013-12-15 00:17:00,13.1,4.2,30.34,North,0,0.0,0.0,67,0.00,,,0.00,WUHU21623XXSP,2013-12-15 08:17:00,
2013-12-15 00:28:00,12.9,4.0,30.34,WNW,292,0.0,0.0,67,0.00,,,0.00,WUHU21623XXSP,2013-12-15 08:28:00,
2013-12-15 00:33:00,12.7,3.8,30.35,NW,315,0.0,0.0,67,0.00,,,0.00,WUHU21623XXSP,2013-12-15 08:33:00,
2013-12-15 00:39:00,12.7,3.8,30.35,SSW,202,0.0,0.0,67,0.00,,,0.00,WUHU21623XXSP,2013-12-15 08:39:00,
2013-12-15 00:45:00,12.7,3.8,30.34,South,180,0.0,0.0,67,0.00,,,0.00,WUHU21623XXSP,2013-12-15 08:45:00,
2013-12-15 00:50:00,12.7,3.8,30.35,South,180,0.0,0.0,67,0.00,,,0.00,WUHU21623XXSP,2013-12-15 08:50:00,
2013-12-15 00:55:00,12.6,3.6,30.35,SW,225,0.0,0.0,67,0.00,,,0.00,WUHU21623XXSP,2013-12-15 08:55:00,
2013-12-15 01:00:00,12.4,3.6,30.35,SW,225,0.0,0.0,68,0.00,,,0.00,WUHU21623XXSP,2013-12-15 09:00:00,
2013-12-15 01:05:00,12.4,3.8,30.34,SW,225,0.0,0.0,68,0.00,,,0.00,WUHU21623XXSP,2013-12-15 09:05:00,
2013-12-15 01:11:00,12.0,3.4,30.34,SW,225,0.0,0.0,68,0.00,,,0.00,WUHU21623XXSP,2013-12-15 09:11:00,
2013-12-15 01:17:00,12.0,3.4,30.34,SW,225,0.0,0.0,68,0.00,,,0.00,WUHU21623XXSP,2013-12-15 09:17:00,
2013-12-15 01:22:00,12.0,3.4,30.34,SE,135,0.0,0.0,68,0.00,,,0.00,WUHU21623XXSP,2013-12-15 09:22:00,
2013-12-15 01:28:00,11.8,3.2,30.34,SE,135,0.0,0.0,68,0.00,,,0.00,WUHU21623XXSP,2013-12-15 09:28:00,
2013-12-15 01:33:00,11.5,3.1,30.34,SE,135,0.0,0.0,68,0.00,,,0.00,WUHU21623XXSP,2013-12-15 09:33:00,
2013-12-15 01:38:00,11.5,2.9,30.34,ESE,112,0.0,0.0,68,0.00,,,0.00,WUHU21623XXSP,2013-12-15 09:38:00,
2013-12-15 01:43:00,11.3,2.7,30.34,ESE,112,0.0,0.0,68,0.00,,,0.00,WUHU21623XXSP,2013-12-15 09:43:00,
2013-12-15 01:48:00,11.3,2.7,30.34,ESE,112,0.0,0.0,68,0.00,,,0.00,WUHU21623XXSP,2013-12-15 09:48:00,
2013-12-15 01:54:00,11.1,2.5,30.34,ESE,112,0.0,0.0,68,0.00,,,0.00,WUHU21623XXSP,2013-12-15 09:54:00,
2013-12-15 01:59:00,11.1,2.5,30.34,ESE,112,0.0,0.0,68,0.00,,,0.00,WUHU21623XXSP,2013-12-15 09:59:00,
2013-12-15 02:04:00,11.1,2.5,30.34,ESE,112,0.0,0.0,68,0.00,,,0.00,WUHU21623XXSP,2013-12-15 10:04:00,
2013-12-15 02:09:00,10.9,2.4,30.34,ESE,112,0.0,0.0,68,0.00,,,0.00,WUHU21623XXSP,2013-12-15 10:09:00,
2013-12-15 02:14:00,10.8,2.2,30.34,ESE,112,0.0,0.0,69,0.00,,,0.00,WUHU21623XXSP,2013-12-15 10:14:00,
2013-12-15 02:19:00,10.8,2.2,30.34,ESE,112,0.0,0.0,68,0.00,,,0.00,WUHU21623XXSP,2013-12-15 10:19:00,
2013-12-15 02:24:00,10.6,2.3,30.34,ESE,112,0.0,0.0,69,0.00,,,0.00,WUHU21623XXSP,2013-12-15 10:24:00,
2013-12-15 02:29:00,10.6,2.3,30.34,ESE,112,0.0,0.0,69,0.00,,,0.00,WUHU21623XXSP,2013-12-15 10:29:00,
2013-12-15 02:34:00,10.6,2.3,30.34,ESE,112,0.0,0.0,69,0.00,,,0.00,WUHU21623XXSP,2013-12-15 10:34:00,
2013-12-15 02:39:00,10.4,2.2,30.34,ESE,112,0.0,0.0,69,0.00,,,0.00,WUHU21623XXSP,2013-12-15 10:39:00,
2013-12-15 02:44:00,10.2,2.0,30.34,WNW,292,0.0,0.0,69,0.00,,,0.00,WUHU21623XXSP,2013-12-15 10:44:00,
2013-12-15 02:52:00,10.0,1.8,30.34,NW,315,0.0,0.0,69,0.00,,,0.00,WUHU21623XXSP,2013-12-15 10:52:00,
2013-12-15 02:57:00,10.0,1.8,30.34,NW,315,0.0,0.0,69,0.00,,,0.00,WUHU21623XXSP,2013-12-15 10:57:00,
2013-12-15 03:02:00,10.0,1.8,30.34,NW,315,0.0,0.0,69,0.00,,,0.00,WUHU21623XXSP,2013-12-15 11:02:00,
2013-12-15 03:07:00,9.9,1.8,30.33,NW,315,0.0,0.0,69,0.00,,,0.00,WUHU21623XXSP,2013-12-15 11:07:00,
2013-12-15 03:12:00,9.9,1.7,30.34,NW,315,0.0,0.0,69,0.00,,,0.00,WUHU21623XXSP,2013-12-15 11:12:00,
2013-12-15 03:17:00,9.7,1.5,30.34,NW,315,0.0,0.0,69,0.00,,,0.00,WUHU21623XXSP,2013-12-15 11:17:00,
2013-12-15 03:22:00,9.7,1.5,30.33,NW,315,0.0,0.0,69,0.00,,,0.00,WUHU21623XXSP,2013-12-15 11:22:00,
2013-12-15 03:28:00,9.7,1.5,30.33,NW,315,0.0,0.0,69,0.00,,,0.00,WUHU21623XXSP,2013-12-15 11:28:00,
2013-12-15 03:33:00,9.7,1.5,30.33,NW,315,0.0,0.0,69,0.00,,,0.00,WUHU21623XXSP,2013-12-15 11:33:00,
2013-12-15 03:38:00,9.5,1.3,30.33,NW,315,0.0,0.0,69,0.00,,,0.00,WUHU21623XXSP,2013-12-15 11:38:00,
2013-12-15 03:43:00,9.3,1.2,30.33,NW,315,0.0,0.0,69,0.00,,,0.00,WUHU21623XXSP,2013-12-15 11:43:00,
2013-12-15 03:48:00,9.3,1.2,30.33,NW,315,0.0,0.0,69,0.00,,,0.00,WUHU21623XXSP,2013-12-15 11:48:00,
2013-12-15 03:56:00,9.1,1.3,30.33,NW,315,0.0,0.0,70,0.00,,,0.00,WUHU21623XXSP,2013-12-15 11:56:00,
2013-12-15 04:01:00,9.1,1.3,30.33,NW,315,0.0,0.0,70,0.00,,,0.00,WUHU21623XXSP,2013-12-15 12:01:00,
2013-12-15 04:06:00,9.1,1.3,30.32,NW,315,0.0,0.0,70,0.00,,,0.00,WUHU21623XXSP,2013-12-15 12:06:00,
2013-12-15 04:11:00,9.0,1.2,30.32,NW,315,0.0,0.0,70,0.00,,,0.00,WUHU21623XXSP,2013-12-15 12:11:00,
2013-12-15 04:16:00,9.0,1.2,30.32,West,270,0.0,0.0,70,0.00,,,0.00,WUHU21623XXSP,2013-12-15 12:16:00,
2013-12-15 04:21:00,9.0,1.2,30.32,West,270,0.0,0.0,70,0.00,,,0.00,WUHU21623XXSP,2013-12-15 12:21:00,
2013-12-15 04:26:00,8.8,1.0,30.32,West,270,0.0,0.0,70,0.00,,,0.00,WUHU21623XXSP,2013-12-15 12:26:00,
2013-12-15 04:31:00,8.8,1.0,30.32,West,270,0.0,0.0,70,0.00,,,0.00,WUHU21623XXSP,2013-12-15 12:31:00,
2013-12-15 04:37:00,8.6,0.9,30.32,West,270,0.0,0.0,70,0.00,,,0.00,WUHU21623XXSP,2013-12-15 12:37:00,
2013-12-15 04:42:00,8.6,0.9,30.32,West,270,0.0,0.0,70,0.00,,,0.00,WUHU21623XXSP,2013-12-15 12:42:00,
2013-12-15 04:47:00,8.4,0.7,30.32,WSW,247,0.0,0.0,70,0.00,,,0.00,WUHU21623XXSP,2013-12-15 12:47:00,
2013-12-15 04:52:00,8.4,0.7,30.32,WSW,247,0.0,0.0,70,0.00,,,0.00,WUHU21623XXSP,2013-12-15 12:52:00,
2013-12-15 04:57:00,8.4,0.7,30.32,WSW,247,0.0,0.0,70,0.00,,,0.00,WUHU21623XXSP,2013-12-15 12:57:00,
2013-12-15 05:02:00,8.4,0.7,30.32,WSW,247,0.0,0.0,70,0.00,,,0.00,WUHU21623XXSP,2013-12-15 13:02:00,
2013-12-15 05:07:00,8.2,0.5,30.32,WSW,247,0.0,0.0,70,0.00,,,0.00,WUHU21623XXSP,2013-12-15 13:07:00,
2013-12-15 05:12:00,8.1,0.3,30.32,WSW,247,0.0,0.0,70,0.00,,,0.00,WUHU21623XXSP,2013-12-15 13:12:00,
2013-12-15 05:17:00,7.9,0.3,30.32,SSW,202,0.0,0.0,70,0.00,,,0.00,WUHU21623XXSP,2013-12-15 13:17:00,
2013-12-15 05:22:00,7.9,0.1,30.32,WSW,247,0.0,0.0,70,0.00,,,0.00,WUHU21623XXSP,2013-12-15 13:22:00,
2013-12-15 05:27:00,7.9,0.1,30.32,WNW,292,0.0,0.0,70,0.00,,,0.00,WUHU21623XXSP,2013-12-15 13:27:00,
2013-12-15 05:32:00,7.7,0.0,30.32,WNW,292,0.0,0.0,70,0.00,,,0.00,WUHU21623XXSP,2013-12-15 13:32:00,
2013-12-15 05:37:00,7.5,-0.2,30.32,NNW,337,0.0,0.0,70,0.00,,,0.00,WUHU21623XXSP,2013-12-15 13:37:00,
2013-12-15 05:42:00,7.5,-0.2,30.31,North,0,0.0,0.0,70,0.00,,,0.00,WUHU21623XXSP,2013-12-15 13:42:00,
2013-12-15 05:47:00,7.5,-0.2,30.31,North,0,0.0,0.0,70,0.00,,,0.00,WUHU21623XXSP,2013-12-15 13:47:00,
2013-12-15 05:52:00,7.3,-0.1,30.31,WSW,247,0.0,0.0,71,0.00,,,0.00,WUHU21623XXSP,2013-12-15 13:52:00,
2013-12-15 05:57:00,7.3,-0.1,30.32,NNW,337,0.0,0.0,71,0.00,,,0.00,WUHU21623XXSP,2013-12-15 13:57:00,
2013-12-15 06:02:00,7.2,-0.3,30.32,NNW,337,0.0,0.0,71,0.00,,,0.00,WUHU21623XXSP,2013-12-15 14:02:00,
2013-12-15 06:07:00,7.2,-0.3,30.32,NNW,337,0.0,0.0,71,0.00,,,0.00,WUHU21623XXSP,2013-12-15 14:07:00,
2013-12-15 06:13:00,7.2,-0.3,30.32,NNW,337,0.0,0.0,71,0.00,,,0.00,WUHU21623XXSP,2013-12-15 14:13:00,
2013-12-15 06:19:00,7.3,-0.1,30.31,NNW,337,0.0,0.0,71,0.00,,,0.00,WUHU21623XXSP,2013-12-15 14:19:00,
2013-12-15 06:24:00,7.3,-0.1,30.31,NNW,337,0.0,0.0,71,0.00,,,0.00,WUHU21623XXSP,2013-12-15 14:24:00,
2013-12-15 06:30:00,7.5,0.4,30.31,SSE,157,0.0,0.0,72,0.00,,,0.00,WUHU21623XXSP,2013-12-15 14:30:00,
2013-12-15 06:35:00,7.5,0.4,30.31,SE,135,0.0,0.0,72,0.00,,,0.00,WUHU21623XXSP,2013-12-15 14:35:00,
2013-12-15 06:40:00,7.5,0.4,30.31,East,90,0.0,0.0,72,0.00,,,0.00,WUHU21623XXSP,2013-12-15 14:40:00,
2013-12-15 06:49:00,7.5,0.4,30.30,East,90,0.0,0.0,72,0.00,,,0.00,WUHU21623XXSP,2013-12-15 14:49:00,
2013-12-15 07:00:00,7.5,0.6,30.31,SSE,157,0.0,0.0,73,0.00,,,0.00,WUHU21623XXSP,2013-12-15 15:00:00,
2013-12-15 07:05:00,7.7,0.8,30.31,South,180,0.0,0.0,73,0.00,,,0.00,WUHU21623XXSP,2013-12-15 15:05:00,
2013-12-15 07:10:00,7.5,0.6,30.31,South,180,0.0,0.0,73,0.00,,,0.00,WUHU21623XXSP,2013-12-15 15:10:00,
2013-12-15 07:15:00,7.7,0.6,30.31,WNW,292,0.0,0.0,73,0.00,,,0.00,WUHU21623XXSP,2013-12-15 15:15:00,
2013-12-15 07:20:00,7.7,0.8,30.31,WNW,292,0.0,0.0,73,0.00,,,0.00,WUHU21623XXSP,2013-12-15 15:20:00,
2013-12-15 07:25:00,7.5,0.6,30.31,WNW,292,0.0,0.0,73,0.00,,,0.00,WUHU21623XXSP,2013-12-15 15:25:00,
2013-12-15 07:32:00,7.7,0.8,30.31,West,270,0.0,0.0,73,0.00,,,0.00,WUHU21623XXSP,2013-12-15 15:32:00,
2013-12-15 07:37:00,7.7,0.8,30.31,West,270,0.0,0.0,73,0.00,,,0.00,WUHU21623XXSP,2013-12-15 15:37:00,
2013-12-15 07:42:00,7.9,1.0,30.31,NNW,337,0.0,0.0,73,0.00,,,0.00,WUHU21623XXSP,2013-12-15 15:42:00,
2013-12-15 07:47:00,7.7,0.8,30.32,North,0,0.0,0.0,73,0.00,,,0.00,WUHU21623XXSP,2013-12-15 15:47:00,
2013-12-15 07:52:00,7.7,0.8,30.31,North,0,0.0,0.0,73,0.00,,,0.00,WUHU21623XXSP,2013-12-15 15:52:00,
2013-12-15 07:57:00,7.9,1.0,30.32,NW,315,0.0,0.0,73,0.00,,,0.00,WUHU21623XXSP,2013-12-15 15:57:00,
2013-12-15 08:02:00,7.9,1.0,30.32,WNW,292,0.0,0.0,73,0.00,,,0.00,WUHU21623XXSP,2013-12-15 16:02:00,
2013-12-15 08:09:00,8.2,1.4,30.32,WNW,292,0.0,0.0,73,0.00,,,0.00,WUHU21623XXSP,2013-12-15 16:09:00,
2013-12-15 08:15:00,8.2,1.7,30.32,WNW,292,0.0,0.0,74,0.00,,,0.00,WUHU21623XXSP,2013-12-15 16:15:00,
2013-12-15 08:20:00,8.4,1.8,30.32,WNW,292,0.0,0.0,74,0.00,,,0.00,WUHU21623XXSP,2013-12-15 16:20:00,
2013-12-15 08:25:00,8.8,2.0,30.32,WNW,292,0.0,0.0,74,0.00,,,0.00,WUHU21623XXSP,2013-12-15 16:25:00,
2013-12-15 08:30:00,8.8,2.2,30.32,WNW,292,0.0,0.0,74,0.00,,,0.00,WUHU21623XXSP,2013-12-15 16:30:00,
2013-12-15 08:35:00,9.1,2.8,30.32,WNW,292,0.0,0.0,75,0.00,,,0.00,WUHU21623XXSP,2013-12-15 16:35:00,
2013-12-15 08:40:00,9.3,2.9,30.32,WNW,292,0.0,0.0,75,0.00,,,0.00,WUHU21623XXSP,2013-12-15 16:40:00,
2013-12-15 08:49:00,10.9,5.0,30.32,WNW,292,0.0,0.0,77,0.00,,,0.00,WUHU21623XXSP,2013-12-15 16:49:00,
2013-12-15 09:00:00,12.6,6.9,30.32,WNW,292,0.0,0.0,78,0.00,,,0.00,WUHU21623XXSP,2013-12-15 17:00:00,
2013-12-15 09:05:00,13.1,7.5,30.32,WNW,292,0.0,0.0,78,0.00,,,0.00,WUHU21623XXSP,2013-12-15 17:05:00,
2013-12-15 09:17:00,14.7,9.1,30.32,NW,315,0.0,0.0,78,0.00,,,0.00,WUHU21623XXSP,2013-12-15 17:17:00,
2013-12-15 09:22:00,15.6,9.8,30.32,West,270,0.0,0.0,78,0.00,,,0.00,WUHU21623XXSP,2013-12-15 17:22:00,
2013-12-15 09:32:00,17.4,11.3,30.32,West,270,0.0,0.0,79,0.00,,,0.00,WUHU21623XXSP,2013-12-15 17:32:00,
2013-12-15 09:37:00,17.8,12.3,30.32,West,270,0.0,0.0,79,0.00,,,0.00,WUHU21623XXSP,2013-12-15 17:37:00,
2013-12-15 09:42:00,18.1,12.3,30.32,WNW,292,0.0,0.0,78,0.00,,,0.00,WUHU21623XXSP,2013-12-15 17:42:00,
2013-12-15 09:47:00,19.0,13.2,30.32,WNW,292,0.0,0.0,78,0.00,,,0.00,WUHU21623XXSP,2013-12-15 17:47:00,
2013-12-15 09:58:00,19.9,13.8,30.32,NW,315,0.0,0.0,77,0.00,,,0.00,WUHU21623XXSP,2013-12-15 17:58:00,
2013-12-15 10:03:00,20.3,14.0,30.33,NW,315,0.0,0.0,77,0.00,,,0.00,WUHU21623XXSP,2013-12-15 18:03:00,
2013-12-15 10:08:00,21.0,14.7,30.32,West,270,0.0,0.0,77,0.00,,,0.00,WUHU21623XXSP,2013-12-15 18:08:00,
2013-12-15 10:15:00,21.9,15.8,30.32,WNW,292,0.0,0.0,77,0.00,,,0.00,WUHU21623XXSP,2013-12-15 18:15:00,
2013-12-15 10:21:00,22.8,16.7,30.32,WNW,292,0.0,0.0,77,0.00,,,0.00,WUHU21623XXSP,2013-12-15 18:21:00,
2013-12-15 10:26:00,23.4,17.2,30.32,WNW,292,0.0,0.0,77,0.00,,,0.00,WUHU21623XXSP,2013-12-15 18:26:00,
2013-12-15 10:32:00,24.1,17.2,30.32,West,270,0.0,0.0,76,0.00,,,0.00,WUHU21623XXSP,2013-12-15 18:32:00,
2013-12-15 10:37:00,24.6,18.1,30.32,NNW,337,0.0,0.0,76,0.00,,,0.00,WUHU21623XXSP,2013-12-15 18:37:00,
2013-12-15 10:45:00,25.5,18.6,30.31,NNW,337,0.0,0.0,75,0.00,,,0.00,WUHU21623XXSP,2013-12-15 18:45:00,
2013-12-15 10:51:00,26.4,19.3,30.30,WNW,292,0.0,0.0,75,0.00,,,0.00,WUHU21623XXSP,2013-12-15 18:51:00,
2013-12-15 11:00:00,27.7,21.1,30.30,NW,315,0.0,0.0,76,0.00,,,0.00,WUHU21623XXSP,2013-12-15 19:00:00,
2013-12-15 11:05:00,28.6,21.6,30.30,WNW,292,0.0,0.0,76,0.00,,,0.00,WUHU21623XXSP,2013-12-15 19:05:00,
2013-12-15 11:15:00,30.6,23.2,30.30,West,270,0.0,0.0,74,0.00,,,0.00,WUHU21623XXSP,2013-12-15 19:15:00,
2013-12-15 11:20:00,31.5,24.1,30.29,WSW,247,0.0,0.0,74,0.00,,,0.00,WUHU21623XXSP,2013-12-15 19:20:00,
2013-12-15 11:32:00,33.6,25.1,30.29,West,270,0.0,0.0,71,0.00,,,0.00,WUHU21623XXSP,2013-12-15 19:32:00,
2013-12-15 11:39:00,34.7,25.9,30.29,WSW,247,0.0,0.0,69,0.00,,,0.00,WUHU21623XXSP,2013-12-15 19:39:00,
2013-12-15 11:47:00,36.1,26.2,30.28,SSE,157,0.0,0.0,67,0.00,,,0.00,WUHU21623XXSP,2013-12-15 19:47:00,
2013-12-15 11:52:00,36.7,26.7,30.28,SW,225,1.1,1.1,67,0.00,,,0.00,WUHU21623XXSP,2013-12-15 19:52:00,
2013-12-15 11:58:00,37.4,27.1,30.27,NW,315,0.0,1.1,66,0.00,,,0.00,WUHU21623XXSP,2013-12-15 19:58:00,
2013-12-15 12:03:00,37.8,27.4,30.27,West,270,0.0,0.0,66,0.00,,,0.00,WUHU21623XXSP,2013-12-15 20:03:00,
2013-12-15 12:08:00,38.1,27.7,30.27,South,180,0.0,0.0,66,0.00,,,0.00,WUHU21623XXSP,2013-12-15 20:08:00,
2013-12-15 12:13:00,39.4,28.1,30.27,West,270,0.0,0.0,64,0.00,,,0.00,WUHU21623XXSP,2013-12-15 20:13:00,
2013-12-15 12:18:00,40.1,28.8,30.27,WNW,292,0.0,0.0,64,0.00,,,0.00,WUHU21623XXSP,2013-12-15 20:18:00,
2013-12-15 12:23:00,40.8,29.2,30.27,NNW,337,0.0,0.0,62,0.00,,,0.00,WUHU21623XXSP,2013-12-15 20:23:00,
2013-12-15 12:30:00,42.1,29.2,30.27,WNW,292,0.0,0.0,60,0.00,,,0.00,WUHU21623XXSP,2013-12-15 20:30:00,
2013-12-15 12:35:00,42.6,29.1,30.27,South,180,0.0,0.0,58,0.00,,,0.00,WUHU21623XXSP,2013-12-15 20:35:00,
2013-12-15 12:40:00,43.0,29.1,30.26,SW,225,0.0,0.0,58,0.00,,,0.00,WUHU21623XXSP,2013-12-15 20:40:00,
2013-12-15 12:45:00,43.3,29.5,30.26,SSW,202,0.0,0.0,58,0.00,,,0.00,WUHU21623XXSP,2013-12-15 20:45:00,
2013-12-15 12:50:00,43.9,29.6,30.26,SW,225,0.0,0.0,57,0.00,,,0.00,WUHU21623XXSP,2013-12-15 20:50:00,
2013-12-15 12:55:00,44.2,29.9,30.26,NW,315,0.0,0.0,57,0.00,,,0.00,WUHU21623XXSP,2013-12-15 20:55:00,
2013-12-15 13:00:00,44.6,29.8,30.26,West,270,0.0,0.0,56,0.00,,,0.00,WUHU21623XXSP,2013-12-15 21:00:00,
2013-12-15 13:05:00,45.0,29.7,30.25,NW,315,0.0,0.0,55,0.00,,,0.00,WUHU21623XXSP,2013-12-15 21:05:00,
2013-12-15 13:10:00,45.0,29.7,30.26,WNW,292,1.3,1.3,55,0.00,,,0.00,WUHU21623XXSP,2013-12-15 21:10:00,
2013-12-15 13:15:00,45.7,30.2,30.25,West,270,0.9,1.3,55,0.00,,,0.00,WUHU21623XXSP,2013-12-15 21:15:00,
2013-12-15 13:20:00,45.7,30.4,30.25,West,270,0.9,0.9,55,0.00,,,0.00,WUHU21623XXSP,2013-12-15 21:20:00,
2013-12-15 13:25:00,46.2,30.4,30.25,West,270,0.0,0.9,54,0.00,,,0.00,WUHU21623XXSP,2013-12-15 21:25:00,
2013-12-15 13:30:00,47.1,31.2,30.25,WNW,292,0.0,0.0,54,0.00,,,0.00,WUHU21623XXSP,2013-12-15 21:30:00,
2013-12-15 13:35:00,47.1,31.2,30.24,WNW,292,0.0,0.0,54,0.00,,,0.00,WUHU21623XXSP,2013-12-15 21:35:00,
2013-12-15 13:41:00,48.4,31.0,30.25,WNW,292,0.0,0.0,51,0.00,,,0.00,WUHU21623XXSP,2013-12-15 21:41:00,
2013-12-15 13:47:00,48.7,30.9,30.24,West,270,0.0,0.0,50,0.00,,,0.00,WUHU21623XXSP,2013-12-15 21:47:00,
2013-12-15 13:52:00,48.9,30.5,30.24,WNW,292,0.9,0.9,49,0.00,,,0.00,WUHU21623XXSP,2013-12-15 21:52:00,
2013-12-15 13:58:00,48.6,29.6,30.24,WNW,292,3.4,3.4,48,0.00,,,0.00,WUHU21623XXSP,2013-12-15 21:58:00,
2013-12-15 14:03:00,48.0,28.6,30.24,SW,225,0.0,3.4,47,0.00,,,0.00,WUHU21623XXSP,2013-12-15 22:03:00,
2013-12-15 14:08:00,47.1,27.9,30.24,South,180,0.9,0.9,47,0.00,,,0.00,WUHU21623XXSP,2013-12-15 22:08:00,
2013-12-15 14:13:00,46.2,27.0,30.24,SSW,202,1.6,1.6,47,0.00,,,0.00,WUHU21623XXSP,2013-12-15 22:13:00,
2013-12-15 14:19:00,45.3,26.2,30.24,SSE,157,0.0,1.6,47,0.00,,,0.00,WUHU21623XXSP,2013-12-15 22:19:00,
2013-12-15 14:28:00,44.1,26.1,30.24,South,180,2.9,2.9,49,0.00,,,0.00,WUHU21623XXSP,2013-12-15 22:28:00,
2013-12-15 14:34:00,43.3,25.5,30.24,SSE,157,2.5,2.9,49,0.00,,,0.00,WUHU21623XXSP,2013-12-15 22:34:00,
2013-12-15 14:36:00,43.0,25.1,30.24,South,180,0.0,2.5,50,0.00,,,0.00,WUHU21623XXSP,2013-12-15 22:36:00,
2013-12-15 14:50:00,42.4,25.2,30.24,SSW,202,0.0,0.0,50,0.00,,,0.00,WUHU21623XXSP,2013-12-15 22:50:00,
2013-12-15 14:55:00,42.1,24.8,30.24,West,270,0.0,0.0,51,0.00,,,0.00,WUHU21623XXSP,2013-12-15 22:55:00,
2013-12-15 15:04:00,41.7,24.9,30.24,SSW,202,0.0,0.0,51,0.00,,,0.00,WUHU21623XXSP,2013-12-15 23:04:00,
2013-12-15 15:09:00,41.5,24.9,30.24,WSW,247,0.0,0.0,51,0.00,,,0.00,WUHU21623XXSP,2013-12-15 23:09:00,
2013-12-15 15:15:00,41.4,25.0,30.24,South,180,0.9,0.9,52,0.00,,,0.00,WUHU21623XXSP,2013-12-15 23:15:00,
2013-12-15 15:20:00,41.2,24.8,30.24,SSW,202,2.9,2.9,52,0.00,,,0.00,WUHU21623XXSP,2013-12-15 23:20:00,
2013-12-15 15:25:00,40.8,24.4,30.24,SSW,202,0.0,2.9,52,0.00,,,0.00,WUHU21623XXSP,2013-12-15 23:25:00,
2013-12-15 15:30:00,40.3,24.3,30.24,West,270,0.0,0.0,52,0.00,,,0.00,WUHU21623XXSP,2013-12-15 23:30:00,
2013-12-15 15:36:00,40.1,23.8,30.24,SW,225,0.0,0.0,52,0.00,,,0.00,WUHU21623XXSP,2013-12-15 23:36:00,
2013-12-15 15:41:00,39.9,24.1,30.24,South,180,0.0,0.0,53,0.00,,,0.00,WUHU21623XXSP,2013-12-15 23:41:00,
2013-12-15 15:46:00,39.7,23.9,30.24,South,180,2.0,2.0,53,0.00,,,0.00,WUHU21623XXSP,2013-12-15 23:46:00,
2013-12-15 15:51:00,39.4,23.6,30.24,SSE,157,0.0,2.0,53,0.00,,,0.00,WUHU21623XXSP,2013-12-15 23:51:00,
2013-12-15 16:04:00,39.0,23.2,30.25,South,180,0.0,0.0,53,0.00,,,0.00,WUHU21623XXSP,2013-12-16 00:04:00,
2013-12-15 16:09:00,38.8,23.1,30.25,South,180,0.0,0.0,53,0.00,,,0.00,WUHU21623XXSP,2013-12-16 00:09:00,
2013-12-15 16:15:00,38.5,22.7,30.25,South,180,0.0,0.0,53,0.00,,,0.00,WUHU21623XXSP,2013-12-16 00:15:00,
2013-12-15 16:23:00,37.9,22.3,30.25,South,180,0.0,0.0,53,0.00,,,0.00,WUHU21623XXSP,2013-12-16 00:23:00,
2013-12-15 16:28:00,37.6,21.9,30.24,South,180,0.0,0.0,53,0.00,,,0.00,WUHU21623XXSP,2013-12-16 00:28:00,
2013-12-15 16:33:00,37.2,21.6,30.25,South,180,0.0,0.0,53,0.00,,,0.00,WUHU21623XXSP,2013-12-16 00:33:00,
2013-12-15 16:38:00,37.0,21.5,30.25,South,180,0.0,0.0,53,0.00,,,0.00,WUHU21623XXSP,2013-12-16 00:38:00,
2013-12-15 16:43:00,36.5,21.0,30.24,South,180,0.0,0.0,53,0.00,,,0.00,WUHU21623XXSP,2013-12-16 00:43:00,
2013-12-15 16:48:00,36.0,20.5,30.25,SSE,157,0.0,0.0,53,0.00,,,0.00,WUHU21623XXSP,2013-12-16 00:48:00,
2013-12-15 16:53:00,35.4,20.0,30.25,SSE,157,0.0,0.0,53,0.00,,,0.00,WUHU21623XXSP,2013-12-16 00:53:00,
2013-12-15 16:58:00,35.4,20.0,30.25,SSE,157,0.0,0.0,53,0.00,,,0.00,WUHU21623XXSP,2013-12-16 00:58:00,
2013-12-15 17:03:00,34.5,19.1,30.25,SSE,157,0.0,0.0,53,0.00,,,0.00,WUHU21623XXSP,2013-12-16 01:03:00,
2013-12-15 17:08:00,34.2,19.1,30.25,SSE,157,0.0,0.0,54,0.00,,,0.00,WUHU21623XXSP,2013-12-16 01:08:00,
2013-12-15 17:15:00,33.3,18.3,30.25,WNW,292,0.0,0.0,54,0.00,,,0.00,WUHU21623XXSP,2013-12-16 01:15:00,
2013-12-15 17:20:00,32.7,17.8,30.25,WNW,292,0.0,0.0,54,0.00,,,0.00,WUHU21623XXSP,2013-12-16 01:20:00,
2013-12-15 17:25:00,32.4,17.9,30.25,WNW,292,0.0,0.0,55,0.00,,,0.00,WUHU21623XXSP,2013-12-16 01:25:00,
2013-12-15 17:32:00,31.6,17.3,30.26,WNW,292,0.0,0.0,55,0.00,,,0.00,WUHU21623XXSP,2013-12-16 01:32:00,
2013-12-15 17:38:00,30.9,16.6,30.26,NE,45,0.0,0.0,55,0.00,,,0.00,WUHU21623XXSP,2013-12-16 01:38:00,
2013-12-15 17:43:00,30.6,16.6,30.25,ESE,112,0.0,0.0,56,0.00,,,0.00,WUHU21623XXSP,2013-12-16 01:43:00,
2013-12-15 17:49:00,30.0,16.1,30.26,ESE,112,0.0,0.0,56,0.00,,,0.00,WUHU21623XXSP,2013-12-16 01:49:00,
2013-12-15 17:55:00,29.5,15.7,30.26,NE,45,0.0,0.0,56,0.00,,,0.00,WUHU21623XXSP,2013-12-16 01:55:00,
2013-12-15 18:00:00,29.3,15.5,30.26,East,90,0.0,0.0,56,0.00,,,0.00,WUHU21623XXSP,2013-12-16 02:00:00,
2013-12-15 18:06:00,28.9,15.6,30.26,ENE,67,0.0,0.0,57,0.00,,,0.00,WUHU21623XXSP,2013-12-16 02:06:00,
2013-12-15 18:11:00,28.6,15.3,30.26,ESE,112,0.0,0.0,57,0.00,,,0.00,WUHU21623XXSP,2013-12-16 02:11:00,
2013-12-15 18:16:00,28.2,14.9,30.26,ESE,112,0.0,0.0,57,0.00,,,0.00,WUHU21623XXSP,2013-12-16 02:16:00,
2013-12-15 18:21:00,28.0,15.2,30.26,ESE,112,0.0,0.0,58,0.00,,,0.00,WUHU21623XXSP,2013-12-16 02:21:00,
2013-12-15 18:26:00,27.7,14.8,30.26,ESE,112,0.0,0.0,58,0.00,,,0.00,WUHU21623XXSP,2013-12-16 02:26:00,
2013-12-15 18:31:00,27.5,14.6,30.26,ESE,112,0.0,0.0,58,0.00,,,0.00,WUHU21623XXSP,2013-12-16 02:31:00,
2013-12-15 18:36:00,27.1,14.3,30.26,ESE,112,0.0,0.0,58,0.00,,,0.00,WUHU21623XXSP,2013-12-16 02:36:00,
2013-12-15 18:41:00,27.0,14.1,30.26,ESE,112,0.0,0.0,58,0.00,,,0.00,WUHU21623XXSP,2013-12-16 02:41:00,
2013-12-15 18:47:00,26.4,14.0,30.27,East,90,0.0,0.0,59,0.00,,,0.00,WUHU21623XXSP,2013-12-16 02:47:00,
2013-12-15 18:52:00,26.4,14.0,30.27,East,90,0.0,0.0,59,0.00,,,0.00,WUHU21623XXSP,2013-12-16 02:52:00,
2013-12-15 18:57:00,26.2,13.8,30.27,East,90,0.0,0.0,59,0.00,,,0.00,WUHU21623XXSP,2013-12-16 02:57:00,
2013-12-15 19:02:00,25.9,13.5,30.27,East,90,0.0,0.0,59,0.00,,,0.00,WUHU21623XXSP,2013-12-16 03:02:00,
2013-12-15 19:08:00,25.5,13.2,30.27,NE,45,0.0,0.0,59,0.00,,,0.00,WUHU21623XXSP,2013-12-16 03:08:00,
2013-12-15 19:13:00,25.3,13.6,30.27,NE,45,0.0,0.0,60,0.00,,,0.00,WUHU21623XXSP,2013-12-16 03:13:00,
2013-12-15 19:18:00,25.2,13.2,30.27,NE,45,0.0,0.0,60,0.00,,,0.00,WUHU21623XXSP,2013-12-16 03:18:00,
2013-12-15 19:23:00,25.0,13.1,30.27,NE,45,0.0,0.0,60,0.00,,,0.00,WUHU21623XXSP,2013-12-16 03:23:00,
2013-12-15 19:28:00,24.8,12.9,30.27,NE,45,0.0,0.0,60,0.00,,,0.00,WUHU21623XXSP,2013-12-16 03:28:00,
2013-12-15 19:33:00,24.4,12.6,30.27,NE,45,0.0,0.0,60,0.00,,,0.00,WUHU21623XXSP,2013-12-16 03:33:00,
2013-12-15 19:38:00,24.4,12.6,30.27,NE,45,0.0,0.0,60,0.00,,,0.00,WUHU21623XXSP,2013-12-16 03:38:00,
2013-12-15 19:39:00,24.4,12.6,30.27,NE,45,0.0,0.0,60,0.00,,,0.00,WUHU21623XXSP,2013-12-16 03:39:00,
2013-12-15 19:44:00,24.1,12.5,30.28,ENE,67,0.0,0.0,61,0.00,,,0.00,WUHU21623XXSP,2013-12-16 03:44:00,
2013-12-15 19:49:00,23.9,12.4,30.27,ENE,67,0.0,0.0,61,0.00,,,0.00,WUHU21623XXSP,2013-12-16 03:49:00,
2013-12-15 19:54:00,23.5,12.0,30.27,ENE,67,0.0,0.0,61,0.00,,,0.00,WUHU21623XXSP,2013-12-16 03:54:00,
2013-12-15 19:59:00,23.4,11.8,30.27,ENE,67,0.0,0.0,61,0.00,,,0.00,WUHU21623XXSP,2013-12-16 03:59:00,
2013-12-15 20:08:00,22.8,11.3,30.28,NNE,22,0.0,0.0,61,0.00,,,0.00,WUHU21623XXSP,2013-12-16 04:08:00,
2013-12-15 20:13:00,22.8,11.3,30.28,NNE,22,0.0,0.0,61,0.00,,,0.00,WUHU21623XXSP,2013-12-16 04:13:00,
2013-12-15 20:18:00,22.6,11.5,30.28,NNE,22,0.0,0.0,62,0.00,,,0.00,WUHU21623XXSP,2013-12-16 04:18:00,
2013-12-15 20:23:00,22.3,11.2,30.28,NNE,22,0.0,0.0,62,0.00,,,0.00,WUHU21623XXSP,2013-12-16 04:23:00,
2013-12-15 20:28:00,22.1,11.0,30.28,NNE,22,0.0,0.0,62,0.00,,,0.00,WUHU21623XXSP,2013-12-16 04:28:00,
2013-12-15 20:34:00,21.7,10.7,30.28,NE,45,0.0,0.0,62,0.00,,,0.00,WUHU21623XXSP,2013-12-16 04:34:00,
2013-12-15 20:39:00,21.6,10.7,30.28,NE,45,0.0,0.0,62,0.00,,,0.00,WUHU21623XXSP,2013-12-16 04:39:00,
2013-12-15 20:44:00,21.6,10.8,30.28,NE,45,0.0,0.0,63,0.00,,,0.00,WUHU21623XXSP,2013-12-16 04:44:00,
2013-12-15 20:49:00,21.2,10.5,30.28,East,90,0.0,0.0,63,0.00,,,0.00,WUHU21623XXSP,2013-12-16 04:49:00,
2013-12-15 20:55:00,21.0,10.3,30.28,East,90,0.0,0.0,63,0.00,,,0.00,WUHU21623XXSP,2013-12-16 04:55:00,
2013-12-15 21:02:00,20.8,10.2,30.28,East,90,0.0,0.0,63,0.00,,,0.00,WUHU21623XXSP,2013-12-16 05:02:00,
2013-12-15 21:07:00,20.5,9.8,30.28,East,90,0.0,0.0,63,0.00,,,0.00,WUHU21623XXSP,2013-12-16 05:07:00,
2013-12-15 21:17:00,20.3,10.0,30.28,East,90,0.0,0.0,64,0.00,,,0.00,WUHU21623XXSP,2013-12-16 05:17:00,
2013-12-15 21:25:00,19.9,9.6,30.28,East,90,0.0,0.0,64,0.00,,,0.00,WUHU21623XXSP,2013-12-16 05:25:00,
2013-12-15 21:30:00,19.9,9.6,30.28,ESE,112,0.0,0.0,64,0.00,,,0.00,WUHU21623XXSP,2013-12-16 05:30:00,
2013-12-15 21:35:00,19.8,9.8,30.28,ESE,112,0.0,0.0,65,0.00,,,0.00,WUHU21623XXSP,2013-12-16 05:35:00,
2013-12-15 21:40:00,19.6,9.6,30.28,ESE,112,0.0,0.0,65,0.00,,,0.00,WUHU21623XXSP,2013-12-16 05:40:00,
2013-12-15 21:45:00,19.2,9.2,30.28,ESE,112,0.0,0.0,65,0.00,,,0.00,WUHU21623XXSP,2013-12-16 05:45:00,
2013-12-15 21:50:00,19.2,9.2,30.28,ESE,112,0.0,0.0,64,0.00,,,0.00,WUHU21623XXSP,2013-12-16 05:50:00,
2013-12-15 21:55:00,19.2,9.2,30.29,ESE,112,0.0,0.0,65,0.00,,,0.00,WUHU21623XXSP,2013-12-16 05:55:00,
2013-12-15 22:00:00,19.0,9.1,30.29,SE,135,0.0,0.0,65,0.00,,,0.00,WUHU21623XXSP,2013-12-16 06:00:00,
2013-12-15 22:08:00,18.5,8.6,30.29,ESE,112,0.0,0.0,65,0.00,,,0.00,WUHU21623XXSP,2013-12-16 06:08:00,
2013-12-15 22:13:00,18.3,8.6,30.29,ESE,112,0.0,0.0,65,0.00,,,0.00,WUHU21623XXSP,2013-12-16 06:13:00,
2013-12-15 22:21:00,18.1,8.3,30.29,East,90,0.0,0.0,65,0.00,,,0.00,WUHU21623XXSP,2013-12-16 06:21:00,
2013-12-15 22:26:00,18.0,8.3,30.29,NE,45,0.0,0.0,65,0.00,,,0.00,WUHU21623XXSP,2013-12-16 06:26:00,
2013-12-15 22:32:00,17.8,8.3,30.29,NE,45,0.0,0.0,66,0.00,,,0.00,WUHU21623XXSP,2013-12-16 06:32:00,
2013-12-15 22:37:00,17.8,8.3,30.29,NE,45,0.0,0.0,66,0.00,,,0.00,WUHU21623XXSP,2013-12-16 06:37:00,
2013-12-15 22:42:00,17.4,8.0,30.29,NE,45,0.0,0.0,66,0.00,,,0.00,WUHU21623XXSP,2013-12-16 06:42:00,
2013-12-15 22:47:00,17.4,8.0,30.29,NE,45,0.0,0.0,66,0.00,,,0.00,WUHU21623XXSP,2013-12-16 06:47:00,
2013-12-15 22:52:00,17.2,7.8,30.29,NW,315,0.0,0.0,66,0.00,,,0.00,WUHU21623XXSP,2013-12-16 06:52:00,
2013-12-15 22:57:00,17.2,7.8,30.29,NW,315,0.0,0.0,66,0.00,,,0.00,WUHU21623XXSP,2013-12-16 06:57:00,
2013-12-15 23:02:00,17.2,7.8,30.29,WNW,292,0.0,0.0,66,0.00,,,0.00,WUHU21623XXSP,2013-12-16 07:02:00,
2013-12-15 23:07:00,16.9,7.4,30.29,WNW,292,0.0,0.0,66,0.00,,,0.00,WUHU21623XXSP,2013-12-16 07:07:00,
2013-12-15 23:12:00,16.9,7.4,30.29,WNW,292,0.0,0.0,66,0.00,,,0.00,WUHU21623XXSP,2013-12-16 07:12:00,
2013-12-15 23:19:00,16.5,7.6,30.29,NW,315,0.0,0.0,67,0.00,,,0.00,WUHU21623XXSP,2013-12-16 07:19:00,
2013-12-15 23:24:00,16.5,7.4,30.29,NW,315,0.0,0.0,67,0.00,,,0.00,WUHU21623XXSP,2013-12-16 07:24:00,
2013-12-15 23:29:00,16.5,7.4,30.29,NW,315,0.0,0.0,67,0.00,,,0.00,WUHU21623XXSP,2013-12-16 07:29:00,
2013-12-15 23:34:00,16.5,7.4,30.30,NW,315,0.0,0.0,67,0.00,,,0.00,WUHU21623XXSP,2013-12-16 07:34:00,
2013-12-15 23:40:00,16.3,7.2,30.30,North,0,0.0,0.0,67,0.00,,,0.00,WUHU21623XXSP,2013-12-16 07:40:00,
2013-12-15 23:45:00,16.2,7.2,30.30,North,0,0.0,0.0,67,0.00,,,0.00,WUHU21623XXSP,2013-12-16 07:45:00,
2013-12-15 23:51:00,16.2,7.0,30.29,North,0,0.0,0.0,67,0.00,,,0.00,WUHU21623XXSP,2013-12-16 07:51:00,
2013-12-15 23:56:00,16.0,6.9,30.29,NE,45,0.0,0.0,67,0.00,,,0.00,WUHU21623XXSP,2013-12-16 07:56:00,